STARLINK-35083, 65390

Orbit data source: Space-Track

STARLINK-35083, 65390 is a payload satellite owned by SpaceX/Seattle (US) in SSO that was launched on Sat, 30 Aug 2025 UTC via an FALCON 9 launch vehicle from the Air Force Western Test Range (AFWTR). Payload-class satellites include a variety of spacecraft equipped with specific instruments for various scientific and technological missions. These include communications satellites like Starlink; space stations such as the ISS; scientific satellites like the Hubble; Earth observation satellites from companies like Planet Labs, Umbra, and HawkEye 360; GPS; miniature CubeSats for education and research; and military/defense satellites.

Loading next visibility...
Identifier
65390, 2025-191M
Orbit
SSO
Country
Flag of USUS
Related business
Manufacturer
SpaceX/Seattle
Mission
Operational Commercial Communications
Bus & Motor
STARLINK V2MO, Unknown motor
Mass
575 kg wet, ~530 kg dry
Launch date (UTC)
2025-08-30 (7 months ago)
Launch vehicle
FALCON 9
Launch site
Air Force Western Test Range (AFWTR)
Object type
Payload
Rocket body
Debris
Shape & HBR
Box + 2 Pan, 17.7 m
Radar Cross Section
36.964 m², Large (>1 m²)

Expand to show TLE details & history
Last TLE update: 19 hours ago

TLE from 19 hours ago
0 STARLINK-35083
1 65390U 25191M   26093.60045499  .00004852  00000-0  34017-3 0  9995
2 65390  97.6029 326.0152 0002137  83.6443 276.5027 15.05657988 34019
Epoch: 2026-04-03T14:24Z
TLE epoch observation values (Epoch: 2026-04-03T14:24:39.311Z)
Latitude
-0.00001°
Longitude
-82.08085°
Altitude
552.384 km
Speed
7.586 km/s
True Right ascension
21h 44m 03s
True Declination
0° 00' 00"
Sunlit
Object was in daylight at epoch
Visualization orbit readout
Latitude
Unknown
Longitude
Unknown
Altitude
Unknown
Speed
Unknown
Apparent Right ascension
Unknown
Apparent Declination
Unknown
Sunlit
N/A
Visualization observer readout
Local Sidereal Time
15:00:53
Azimuth
Unknown
Elevation
Unknown
Doppler factor
Unknown
Orbital elements
Apogee altitude
547.96 km
Perigee altitude
545 km
Semi-major axis
6,924.617 km
Eccentricity
0.00021
Inclination
97.6029°
RAAN
326.0152°
Arg. of periapsis
83.6443°
True anomaly
276.47837°
Mean anomaly
276.5027°
Eccentric anomaly
276.49053°
Mean motion
3.7666 °/min
Orbital period
95.58 mins
BSTAR
0.00034017
Loading maneuver chart data...
Computing Atmospheric mass density...
Loading historical data...
Loading historical data...
Loading historical data...
Loading historical data...
Loading historical data...
Loading historical data...
Loading historical data...

Documentation

Showing up to 5 results
|